Theta_e
352 349 344 343 340 337 339 341 340 338 336 335 333 331 331 332 335 339 339 339 339 339 339 338 337 337 337 336 335 334 336 336 335 334 332 330 328 327 326 325 324 326 327 326 323 320 316 313 313 318 321 321 323 322 318 317 315 314 315 315 315 315 315 315 315 314 315 315 315 314 314 314 314 313 314 313 314 313 314 317 316 313 313 314 315
352 347 344 343 340 337 339 341 339 338 336 334 332 331 331 331 334 337 339 339 339 339 339 339 338 337 336 336 335 334 335 336 336 335 334 331 329 329 328 327 327 330 334 334 332 329 322 316 312 313 316 319 322 321 318 316 315 315 314 314 315 314 315 315 315 314 314 314 314 314 314 314 314 314 314 313 313 313 313 315 315 314 313 313 314
351 345 343 342 338 338 340 340 339 338 335 334 332 331 331 331 332 335 338 339 339 339 339 339 339 338 337 336 335 333 334 336 336 336 334 331 330 331 330 330 331 333 336 337 336 334 327 322 316 311 312 316 321 321 318 316 315 315 314 314 315 314 315 315 314 314 314 314 314 314 314 314 314 314 314 313 313 313 313 314 314 313 313 313 314
348 344 343 341 337 339 341 340 339 337 336 334 332 331 331 330 330 333 337 338 338 338 338 339 339 339 337 336 335 332 333 336 336 336 335 331 330 332 332 332 334 335 337 337 337 336 332 326 321 315 311 312 318 321 318 316 315 315 315 314 315 315 315 315 315 316 317 318 316 316 318 317 314 313 313 313 313 313 313 314 314 313 313 314 313
347 343 342 340 338 340 340 339 338 337 336 333 332 332 331 329 328 329 332 334 335 336 336 336 338 338 337 337 334 331 333 336 336 336 336 333 332 334 333 333 334 335 336 338 338 339 335 328 325 322 318 314 315 321 319 316 316 315 315 315 316 315 315 316 318 321 325 326 326 326 325 320 315 313 313 313 313 313 313 313 314 313 313 313 313
345 343 342 339 338 340 340 339 338 337 336 333 332 332 331 328 327 327 328 329 330 331 332 333 335 336 336 333 330 330 333 336 337 337 337 336 335 336 335 335 335 336 337 338 339 339 336 330 329 330 328 324 317 319 320 316 316 315 315 316 316 316 318 321 324 329 333 334 335 334 333 327 320 316 314 314 313 313 313 313 314 313 313 313 313
343 343 342 339 338 339 339 338 337 337 335 333 332 332 330 328 328 328 328 328 328 328 329 329 331 331 330 328 328 330 334 336 338 337 337 338 337 337 337 337 337 337 338 338 338 338 335 331 331 332 333 330 319 315 320 317 316 315 314 316 316 318 322 325 331 334 337 338 338 337 337 333 326 321 315 313 313 313 313 313 314 313 313 313 313
343 343 342 339 338 338 339 338 337 336 335 333 332 332 329 328 329 329 330 330 329 328 327 326 326 327 327 328 330 332 335 336 337 337 337 337 336 336 335 336 337 337 337 336 336 333 331 331 331 333 335 332 321 313 317 317 316 316 315 316 316 320 325 330 334 336 337 338 339 338 338 336 332 328 318 313 313 313 313 312 313 313 314 313 313
343 343 342 340 338 338 337 337 337 335 334 333 332 331 329 328 329 330 331 331 329 327 324 324 324 325 326 329 331 333 335 335 335 335 334 334 332 332 332 333 334 333 332 330 330 327 326 329 332 335 334 332 325 314 314 316 316 316 315 316 316 321 327 331 334 335 336 337 339 337 337 336 333 329 318 313 314 313 312 312 313 313 313 313 313
344 343 342 340 338 337 337 337 336 335 334 332 332 331 329 327 329 330 330 330 329 326 323 323 323 324 326 328 330 333 333 331 330 330 330 330 329 329 329 330 329 328 326 324 324 324 327 330 332 334 333 331 328 316 312 314 315 315 316 316 316 321 327 330 333 335 336 337 339 337 337 335 331 329 319 313 313 312 312 312 313 313 313 313 313
346 344 342 341 338 337 337 336 336 335 333 332 332 331 329 328 328 329 329 330 328 326 325 323 323 324 326 327 328 330 330 329 329 329 329 330 330 331 330 330 329 328 325 322 321 323 328 329 327 329 329 328 328 320 312 312 315 315 315 317 315 319 326 330 334 336 336 337 338 335 335 336 335 331 319 312 313 311 312 312 313 313 313 313 313
349 346 343 341 338 337 337 336 336 334 333 332 332 331 330 328 328 328 328 329 329 328 327 325 324 324 324 325 326 325 326 328 329 330 331 331 332 332 331 330 330 329 327 323 320 320 323 324 324 326 326 326 327 322 316 312 314 315 316 318 315 319 326 330 333 335 336 336 335 333 333 335 336 329 316 311 312 312 311 312 313 313 313 313 313
350 347 343 340 338 337 337 336 335 334 333 332 332 331 330 329 327 328 328 329 329 329 328 326 325 324 323 323 322 322 324 328 331 331 331 331 331 331 329 328 328 328 328 326 321 318 320 322 325 327 326 326 327 323 317 313 313 313 316 319 316 320 327 331 334 335 336 334 333 334 333 335 334 324 314 312 312 312 312 312 313 313 313 313 313
348 347 343 340 338 337 336 336 336 334 333 332 332 331 331 329 328 328 328 329 329 329 329 328 327 325 324 323 322 321 324 329 331 330 331 331 331 330 329 327 326 326 327 327 323 320 324 324 322 324 323 324 324 322 317 313 313 314 316 319 317 322 329 332 334 334 335 334 334 335 334 334 329 318 313 312 312 312 312 312 313 312 313 313 313
347 346 342 340 339 337 337 336 336 335 333 332 332 332 331 330 329 328 329 330 329 329 329 329 328 328 327 326 324 323 325 329 330 330 331 332 331 331 330 328 327 326 326 327 324 325 330 328 321 319 320 320 319 320 319 316 314 314 316 318 318 323 329 331 333 334 334 333 333 334 333 330 322 314 312 312 311 312 312 312 311 312 312 312 313
346 345 342 340 340 339 337 336 336 335 333 332 331 331 331 331 330 329 329 329 329 329 329 329 329 329 329 328 327 326 328 329 330 330 331 333 332 331 330 329 328 326 326 326 325 327 331 330 325 319 320 320 317 320 323 320 317 314 315 316 317 322 329 332 332 333 333 332 333 334 334 331 322 314 312 312 311 311 312 311 311 311 312 312 312
345 344 341 339 340 339 338 336 336 336 334 332 331 331 331 331 330 330 329 330 329 329 329 329 329 329 329 330 330 329 330 331 331 331 332 332 333 332 331 330 328 326 326 325 325 329 330 329 329 323 320 320 319 322 324 324 321 316 315 315 317 324 331 332 333 334 333 332 333 333 333 330 322 313 312 312 312 311 311 311 311 310 311 311 311
344 344 341 338 339 339 338 337 336 336 336 333 332 331 331 331 331 330 330 330 329 329 329 329 329 329 330 330 330 330 330 331 331 331 331 332 332 332 331 329 328 326 325 325 325 329 330 329 330 326 320 320 321 323 324 325 325 320 317 316 318 327 332 331 333 334 332 332 333 334 332 327 318 312 312 312 311 311 311 311 311 310 310 310 311
344 343 342 341 340 338 338 338 337 337 337 336 334 332 331 331 331 330 330 330 329 329 329 329 329 329 330 330 330 330 329 329 330 330 330 331 332 331 330 329 327 326 325 324 325 328 330 329 329 327 322 321 321 323 323 323 326 325 320 317 320 326 329 330 331 331 330 331 333 334 333 330 322 313 312 312 311 311 310 311 310 310 310 309 309
343 342 342 342 342 340 339 338 338 338 337 337 336 335 332 331 331 330 330 329 329 329 330 329 329 330 330 330 330 330 330 329 329 330 331 331 331 330 329 328 326 326 325 324 325 326 328 328 328 327 325 323 321 322 323 322 325 327 324 320 320 325 330 331 332 331 330 330 332 332 332 331 324 313 312 312 311 311 310 311 310 309 309 309 308
342 341 341 341 341 340 340 338 338 338 339 338 338 337 336 334 332 331 330 329 329 329 330 329 329 330 330 330 330 330 330 330 330 329 331 331 330 330 328 326 325 325 325 324 325 326 327 328 328 327 327 326 324 322 322 322 323 326 327 323 321 326 330 330 332 333 332 331 329 327 326 324 318 311 312 312 311 311 310 310 310 309 309 308 308
341 341 341 340 340 340 339 338 338 339 339 339 339 338 338 337 335 333 331 330 330 329 330 330 330 330 330 330 330 330 331 331 331 329 329 330 329 330 327 325 324 324 324 324 325 326 325 327 327 328 328 327 326 325 321 320 323 325 326 325 323 324 324 325 331 332 331 331 330 325 319 314 311 310 312 312 311 310 309 309 310 309 309 308 307
341 341 340 338 338 338 339 338 338 339 338 339 339 338 338 338 337 336 334 333 332 330 330 331 331 331 330 331 330 331 331 329 330 329 328 329 330 329 327 324 324 324 323 324 325 325 324 323 324 326 328 327 327 327 324 319 320 323 325 326 325 323 323 326 330 331 329 330 330 328 321 311 309 310 311 311 310 309 308 309 309 308 308 308 306
341 340 339 336 335 336 337 337 337 338 338 338 338 338 338 338 338 338 337 336 334 333 333 331 332 332 332 332 331 331 330 329 328 328 328 329 329 328 326 325 324 322 322 323 324 323 322 322 322 323 325 326 326 327 327 323 319 320 323 326 326 328 330 330 331 331 330 329 330 330 324 313 309 309 309 310 309 309 308 308 309 308 308 308 307
340 338 338 336 335 335 335 336 337 336 337 336 336 337 338 337 338 337 337 337 336 335 335 334 333 333 333 332 332 332 330 329 329 329 329 329 329 328 326 326 324 322 321 323 325 325 325 323 322 321 321 322 325 328 328 329 325 319 322 327 328 332 333 330 331 332 331 330 330 328 321 312 310 309 308 309 308 308 308 308 308 308 308 308 307
336 335 336 337 336 334 333 335 333 332 334 334 334 335 336 337 337 335 336 336 335 335 335 335 335 334 333 333 332 331 330 330 330 331 330 329 329 329 328 328 326 325 324 324 324 327 328 327 325 324 320 320 325 329 329 330 328 322 324 328 329 332 333 331 332 333 331 330 331 328 318 312 311 309 308 308 308 308 307 308 307 308 308 307 307
334 333 335 336 336 333 331 333 332 331 333 332 332 335 335 335 334 333 334 334 334 334 334 334 333 332 332 332 331 331 330 329 330 331 330 330 330 329 329 329 329 329 328 326 325 329 331 330 330 329 326 325 327 330 329 329 328 326 327 329 329 331 333 333 334 332 332 331 331 328 318 314 313 310 310 308 308 308 307 307 307 307 307 307 307
333 334 335 334 334 333 331 333 333 332 331 330 332 333 332 333 333 333 334 332 331 332 332 333 332 331 331 332 331 331 330 330 330 330 328 329 330 330 330 331 331 330 330 328 327 330 331 331 332 332 330 329 329 329 329 329 329 328 328 329 329 330 332 333 334 332 332 332 331 327 318 316 315 311 311 309 309 308 307 307 306 306 306 306 306
333 334 333 332 332 332 332 333 333 332 331 332 333 333 332 333 333 333 334 333 332 333 332 333 332 330 330 331 330 330 331 331 331 330 329 328 329 330 331 332 332 331 330 330 329 330 332 331 331 331 331 330 329 329 329 330 330 328 328 329 329 330 331 332 333 333 332 332 331 328 321 317 316 314 312 311 310 309 308 307 307 306 306 306 306
334 332 330 331 331 330 331 332 332 332 331 333 333 332 332 331 331 332 332 332 332 332 333 333 333 332 330 329 328 329 331 332 331 331 330 327 328 330 331 332 332 331 331 331 330 331 331 330 330 331 330 329 328 328 329 329 330 329 328 329 329 329 330 331 333 333 332 332 331 329 325 320 316 315 314 313 313 312 310 309 308 307 307 306 306
333 332 331 331 331 330 331 332 332 331 331 331 332 332 329 327 329 331 331 332 331 332 332 332 332 331 330 328 328 329 331 332 330 330 330 329 329 329 331 331 331 331 331 330 331 331 330 330 330 330 330 329 328 328 328 328 330 330 328 329 328 328 329 330 331 332 331 332 330 329 329 325 320 317 315 314 314 314 313 312 311 311 309 308 307
333 333 332 330 330 330 331 331 330 329 330 330 330 330 329 328 329 330 331 331 328 329 331 330 330 331 331 330 329 331 332 332 331 329 329 330 329 329 329 329 330 331 331 331 331 331 330 330 330 329 329 329 328 327 327 327 328 329 328 328 328 327 329 329 330 330 330 331 330 329 329 328 325 322 319 316 314 314 315 314 313 313 312 311 310
334 333 331 330 330 330 332 330 323 325 331 329 328 328 329 330 330 331 332 330 326 327 328 327 328 330 331 330 329 330 331 332 331 329 328 329 329 329 328 329 330 330 331 332 331 331 330 330 329 328 329 328 327 326 327 327 327 328 328 327 328 327 328 329 329 330 330 330 330 329 329 329 328 326 324 322 318 315 314 315 315 315 315 314 313
334 333 331 330 330 331 330 323 315 322 330 328 329 330 328 328 329 330 331 330 330 329 329 328 328 329 330 330 329 329 329 330 331 329 328 329 328 329 329 329 330 330 331 331 331 331 330 330 329 328 328 327 326 326 327 327 327 327 327 327 327 326 327 328 328 329 329 329 329 329 329 329 328 328 328 327 326 321 316 315 316 315 316 316 316
334 332 332 332 331 330 324 316 315 322 326 324 327 329 327 328 330 330 328 328 330 329 329 330 330 330 330 330 330 330 330 330 331 330 330 330 329 329 330 330 330 330 330 329 329 329 329 330 329 328 327 325 326 327 326 326 327 326 326 327 327 327 327 327 328 328 328 328 328 329 329 329 329 329 329 329 329 326 323 319 317 316 316 316 316
334 332 332 333 329 323 317 316 318 320 320 319 320 320 321 324 326 326 324 325 328 328 327 327 328 329 329 329 329 330 330 330 331 331 331 331 330 330 331 331 331 330 327 325 325 327 329 329 328 327 327 326 326 327 326 326 326 326 327 327 327 328 327 327 327 327 327 328 328 328 328 329 329 329 329 329 329 328 327 327 325 323 321 320 318
333 330 329 329 322 317 315 316 318 317 317 317 315 316 319 322 321 321 324 325 326 327 327 326 326 327 328 328 328 328 329 329 329 330 330 330 330 331 332 332 330 328 327 326 327 328 329 329 327 328 328 328 327 328 328 327 327 327 328 327 327 328 328 327 327 327 328 328 328 328 328 328 329 329 329 329 329 327 327 329 329 328 326 325 322
332 327 325 324 317 316 316 315 316 316 317 316 315 316 319 323 322 317 320 324 323 324 326 327 326 327 326 327 327 326 326 328 329 329 329 329 330 330 331 330 328 327 327 328 328 328 329 329 328 328 329 328 328 328 328 328 328 328 328 328 328 329 328 328 328 328 328 328 328 328 328 328 329 329 329 329 329 328 327 329 330 329 328 327 325
332 327 326 324 315 314 315 313 314 315 317 316 313 314 316 321 322 319 321 324 323 323 325 326 325 325 325 324 325 325 325 327 327 328 328 329 330 330 329 327 326 328 328 327 327 328 328 328 328 328 329 329 328 328 328 328 328 326 326 328 329 330 330 329 329 328 328 328 328 328 327 328 328 329 329 330 330 329 329 330 330 329 329 327 326
332 328 328 329 317 312 314 312 313 317 318 315 313 318 321 322 324 325 324 324 323 322 324 325 325 325 325 324 325 325 325 326 327 326 326 326 327 327 326 326 327 327 328 328 328 328 328 327 327 328 328 329 328 327 328 328 328 325 325 326 326 327 328 328 329 329 328 327 328 328 328 328 327 328 329 329 330 330 330 330 330 329 329 328 327
333 329 330 333 322 312 313 312 313 316 315 314 319 325 326 324 324 325 323 322 322 322 322 323 324 324 324 324 324 323 321 322 324 325 325 325 325 324 323 324 326 326 326 328 327 328 328 327 326 327 328 328 327 326 326 327 328 326 326 325 323 324 325 326 327 329 329 328 328 328 328 327 328 328 328 329 330 329 329 329 330 330 329 329 328
335 331 331 335 328 315 312 313 312 313 312 317 324 327 325 323 323 324 323 321 322 323 323 321 319 316 317 317 314 316 319 318 319 320 321 324 325 324 323 322 323 325 326 326 327 328 328 327 327 327 328 327 327 326 326 326 326 326 325 324 324 325 325 324 324 326 327 327 328 328 328 328 328 329 328 329 330 330 329 329 330 330 330 330 329
336 334 333 336 332 320 313 312 311 311 313 319 323 323 322 323 322 322 323 322 323 324 321 319 318 313 311 310 307 314 322 323 321 319 320 323 323 324 323 322 323 325 326 326 327 328 328 327 328 328 328 327 327 327 327 326 325 325 325 325 326 327 326 326 326 326 326 326 327 327 328 328 328 328 329 329 329 329 329 328 329 329 329 330 330
337 335 335 335 333 326 316 312 311 311 313 317 318 317 317 319 319 320 322 319 317 319 315 313 317 315 310 308 307 314 321 322 323 322 321 320 321 323 322 322 323 325 326 326 326 327 327 327 328 328 328 328 327 327 327 326 325 326 327 327 328 327 327 328 328 327 326 325 325 324 326 327 327 328 328 329 329 329 329 329 328 328 329 329 329
336 336 335 334 333 330 320 312 312 312 312 314 315 312 312 313 313 315 316 311 309 315 316 315 319 318 313 310 311 314 316 318 320 321 321 320 319 320 322 321 322 324 324 324 324 324 325 326 327 328 328 328 328 328 328 327 326 327 327 327 327 326 327 328 327 326 326 324 323 323 324 324 325 326 327 327 328 328 328 329 328 329 329 329 329
334 335 335 334 332 330 323 313 312 312 312 313 313 311 310 310 309 309 311 311 314 319 319 319 321 320 316 313 311 310 311 313 313 313 317 319 319 320 321 321 321 322 323 323 323 323 324 325 327 327 328 328 328 328 328 328 327 327 327 327 326 326 326 326 324 323 324 324 324 323 323 322 322 324 326 326 327 327 328 328 328 328 328 328 328
332 333 334 334 332 331 325 315 312 313 312 313 313 311 311 310 309 311 314 317 321 322 319 320 320 315 312 311 310 309 312 312 310 312 315 316 318 319 319 320 320 320 321 321 322 322 323 324 325 324 325 326 327 328 329 328 328 327 327 326 326 326 325 325 325 324 323 324 324 324 323 323 322 323 324 324 325 326 327 327 326 325 325 326 327
330 332 333 333 332 330 324 316 312 313 312 312 312 311 311 309 311 316 319 320 321 319 316 316 314 309 309 314 315 314 316 315 313 317 317 313 314 317 319 320 319 319 320 320 320 321 321 322 323 323 324 325 325 326 326 326 327 327 327 326 326 326 325 324 324 325 324 323 323 323 324 324 324 323 323 323 322 323 324 325 325 325 325 325 324
329 333 333 332 332 330 325 319 315 313 312 312 312 312 311 310 314 318 320 320 319 315 312 311 310 308 310 317 319 314 312 312 311 313 314 310 310 313 316 318 318 318 317 314 312 312 312 312 314 317 320 323 323 323 323 323 324 325 324 324 325 325 324 324 324 325 324 324 324 323 323 324 323 323 323 323 321 321 322 324 325 327 327 327 327
330 332 334 332 330 330 327 324 319 315 313 312 311 312 311 310 315 319 320 320 317 313 313 311 309 309 309 312 315 313 310 310 309 310 309 307 307 308 309 312 314 314 314 311 307 304 304 305 305 307 310 313 317 322 322 319 319 321 322 322 323 323 323 323 324 324 323 322 322 323 323 323 322 322 320 321 321 319 319 320 320 321 322 324 326
329 330 334 333 329 328 328 326 322 318 314 312 311 312 312 311 314 318 320 320 315 313 314 311 308 310 309 311 314 315 314 310 308 309 308 307 307 306 306 307 308 310 312 312 310 307 306 306 305 305 305 305 308 314 314 310 311 316 319 321 321 321 322 322 322 323 322 321 321 320 320 319 318 318 318 319 319 317 315 314 313 313 315 316 318
Wind_Speed
11 15 17 17 16 15 17 17 16 16 15 14 14 15 15 14 14 14 15 14 12 10 8 7 7 7 6 6 7 8 9 10 10 9 11 13 14 13 12 11 11 11 10 9 8 7 7 7 6 7 7 6 7 7 8 8 9 10 12 13 14 14 14 15 14 14 13 13 14 14 14 15 15 16 17 18 20 20 19 16 16 19 20 19 19
16 17 18 18 16 16 17 18 17 16 15 14 15 15 15 15 14 14 14 13 12 9 8 6 5 5 5 5 6 7 8 9 9 8 8 10 12 12 11 10 10 10 10 9 8 7 6 6 6 6 6 6 6 7 8 8 9 10 11 13 13 13 14 14 14 13 12 12 12 12 12 13 13 14 15 17 19 19 18 15 15 18 19 19 18
19 19 18 18 16 17 18 18 17 16 15 15 15 15 15 14 14 14 14 13 11 9 7 6 4 4 4 4 5 6 7 9 9 7 6 8 10 10 10 9 9 9 9 9 8 7 5 6 5 5 6 6 5 6 7 8 9 10 10 13 14 14 14 15 14 13 12 11 10 11 11 11 11 13 14 16 18 17 15 15 17 18 18 18 18
20 21 19 19 17 17 18 18 17 16 15 15 15 15 15 14 14 13 13 12 10 9 7 5 4 3 2 3 4 5 6 8 8 7 6 7 8 9 9 8 8 7 7 7 7 6 4 5 4 4 5 5 4 5 7 8 9 9 10 13 15 15 15 15 15 13 12 10 9 9 10 9 8 11 13 14 16 15 14 16 18 18 18 18 18
21 21 20 20 18 18 18 18 17 16 15 15 15 14 14 14 14 13 12 11 10 8 6 5 4 3 2 2 3 4 6 7 7 7 7 8 7 8 7 7 7 6 6 6 6 4 2 3 3 4 4 4 4 5 5 7 8 9 10 13 15 16 16 16 15 14 14 12 9 8 8 7 6 8 11 13 14 14 15 18 18 18 18 18 18
21 21 21 20 19 18 18 18 17 16 15 15 15 14 14 14 14 14 13 12 10 9 7 6 4 3 2 1 2 4 6 6 6 7 7 8 7 7 7 7 7 6 5 5 5 3 2 3 4 5 5 5 5 4 5 6 8 9 11 14 16 17 18 17 18 17 17 17 12 9 8 8 7 5 7 10 12 14 17 18 18 18 18 17 17
21 21 21 20 19 19 18 18 17 15 16 16 15 14 14 15 15 15 14 13 12 10 8 7 5 4 3 2 2 4 6 6 6 7 7 7 7 7 7 7 6 6 5 3 3 2 1 3 4 5 5 5 5 4 4 5 6 9 11 14 17 19 19 19 20 19 19 17 13 8 7 12 9 7 3 8 12 15 18 18 18 17 17 17 17
21 21 21 20 19 19 19 18 17 16 16 16 15 14 14 15 15 15 15 14 13 11 10 8 6 5 4 4 4 5 6 7 7 7 7 6 7 7 6 6 6 5 5 4 3 3 0 3 4 4 3 3 3 4 4 4 5 8 11 14 17 19 19 20 21 20 19 17 14 7 8 14 11 8 2 6 12 15 18 18 17 16 16 17 16
20 20 21 20 19 19 19 18 17 16 16 16 15 14 14 15 15 15 14 14 13 12 10 9 8 7 7 6 6 6 6 7 6 6 6 6 6 6 5 5 5 4 4 4 3 4 1 3 3 3 1 1 2 4 5 4 4 6 10 13 17 19 19 20 20 19 19 16 10 5 7 10 10 6 1 6 12 15 17 16 16 16 15 16 16
19 19 20 19 19 19 19 18 18 17 17 16 15 15 15 15 15 15 14 14 13 12 11 11 10 10 9 9 8 7 6 6 6 6 5 5 4 4 4 3 3 3 2 2 3 2 0 1 3 4 2 1 1 3 5 4 4 5 9 13 16 19 18 19 19 19 19 12 5 6 8 11 9 5 5 7 12 14 15 15 15 15 15 15 15
17 18 19 19 19 19 19 18 18 18 17 17 15 15 15 15 15 15 14 14 13 12 12 11 11 10 10 10 9 8 7 7 6 6 5 4 3 3 3 3 3 2 2 1 1 2 2 1 3 3 2 1 0 1 3 4 5 5 9 13 15 18 17 18 19 19 16 7 5 6 10 13 11 8 7 8 11 13 14 13 13 14 14 15 15
16 16 19 19 19 19 18 18 18 18 17 17 15 15 15 15 15 15 15 14 13 12 11 11 10 10 10 9 9 8 8 8 7 5 5 4 3 3 2 2 2 2 2 1 2 2 2 0 1 2 3 3 1 1 2 3 4 5 9 12 15 17 16 17 18 19 11 3 4 8 12 13 12 9 5 9 11 13 13 12 13 14 14 14 14
15 15 18 20 19 19 18 17 17 17 17 16 15 14 14 15 15 15 15 14 14 12 11 10 10 9 9 8 8 8 9 8 6 5 4 4 3 3 2 1 1 1 2 2 2 2 1 1 1 0 2 2 1 2 1 2 4 5 8 12 15 16 16 17 18 17 8 2 2 9 12 11 10 7 3 10 12 11 11 12 14 14 14 13 13
15 15 18 20 19 19 18 17 16 16 16 15 14 14 14 14 15 15 14 14 13 12 11 10 10 9 8 8 8 8 9 8 6 5 4 4 4 3 2 1 1 1 2 2 1 2 2 2 1 1 2 1 1 3 2 1 3 4 7 11 15 16 16 18 19 16 6 5 4 11 11 11 8 4 5 10 10 9 10 12 13 13 14 13 13
14 15 18 19 19 19 17 16 16 16 15 15 14 14 14 13 14 14 14 13 12 12 11 10 9 9 8 8 7 8 8 7 6 4 4 3 3 3 3 2 1 1 1 1 1 2 3 3 2 1 2 1 2 5 5 3 2 3 6 9 14 16 15 16 18 15 6 7 7 12 9 7 5 3 6 8 8 8 9 11 12 12 13 13 13
13 15 16 18 18 18 17 16 15 16 16 15 15 14 13 13 13 13 13 12 12 11 11 10 9 9 9 8 8 7 7 7 6 5 4 4 3 3 4 3 2 1 1 1 1 2 3 3 3 2 3 2 4 6 6 6 5 4 5 9 14 14 13 13 15 12 6 5 7 11 7 8 6 3 5 7 7 7 7 9 11 11 12 12 12
13 14 15 16 16 16 16 16 16 16 16 16 15 14 14 13 13 12 12 12 12 11 11 10 10 9 9 8 8 7 7 6 6 5 4 4 4 5 5 4 3 1 1 0 0 1 2 2 2 3 4 2 3 6 6 6 6 7 7 9 13 15 14 14 14 11 7 5 8 11 7 9 6 1 5 6 6 6 6 8 9 10 11 11 12
14 12 14 16 15 15 15 15 16 15 16 16 15 15 14 13 13 12 12 12 12 11 11 10 10 10 9 8 8 7 6 6 5 4 4 5 5 6 6 5 4 3 3 2 1 2 2 1 2 2 4 3 3 5 5 5 5 7 10 11 14 16 15 14 14 10 6 7 9 11 8 7 4 1 3 5 5 5 5 6 8 9 9 10 11
16 13 12 15 16 14 15 15 15 14 14 14 14 14 13 13 13 13 12 12 12 11 11 11 10 10 9 8 7 7 6 5 5 5 5 6 6 6 6 6 5 5 4 4 3 3 3 2 2 2 2 3 3 3 3 4 5 7 9 12 15 15 13 11 11 6 6 10 9 9 10 9 7 3 2 4 5 5 5 5 6 7 8 9 9
17 16 13 14 15 14 15 15 14 13 14 14 13 13 13 13 13 13 12 12 12 11 12 12 11 10 9 8 7 7 6 5 5 5 6 7 7 7 7 6 6 6 6 5 4 4 4 4 3 2 1 1 3 2 1 3 5 6 8 12 15 15 14 12 10 5 6 8 8 8 9 10 8 5 2 4 5 5 4 5 6 6 7 8 8
18 19 16 13 13 12 13 15 14 12 12 12 12 12 12 13 13 13 12 12 12 12 12 12 12 11 10 9 8 8 7 5 5 5 6 7 8 8 8 7 7 7 6 6 5 5 5 4 4 3 2 1 2 2 2 3 5 6 8 10 14 17 16 13 12 6 6 6 7 8 8 8 7 6 3 4 5 5 5 5 5 6 7 7 8
19 19 15 12 11 11 11 12 12 12 11 10 10 11 12 13 13 13 13 13 12 12 12 12 12 11 10 10 9 9 7 6 6 6 7 8 9 9 9 8 8 7 6 6 6 6 5 5 5 4 3 2 2 2 3 4 5 6 8 10 13 16 14 12 14 6 7 8 6 5 6 7 6 6 4 5 6 6 5 5 6 7 7 7 7
17 16 15 13 11 9 9 9 10 11 10 9 9 9 11 13 13 13 14 14 14 14 14 14 13 12 11 10 10 10 8 7 8 7 8 9 10 9 9 9 8 7 7 6 6 6 6 6 7 6 5 4 3 3 4 4 5 7 7 8 10 12 11 12 14 8 9 9 7 7 7 7 5 5 5 5 6 6 6 6 6 7 7 7 7
15 15 16 14 11 9 8 8 8 9 9 9 8 8 9 10 11 11 13 14 15 15 15 16 15 13 11 10 10 11 9 8 8 8 9 10 10 10 10 9 7 7 7 7 7 7 7 7 8 8 7 6 5 3 2 2 5 7 7 7 7 7 8 14 13 7 11 9 9 9 9 7 5 4 4 5 6 7 7 7 7 7 8 7 7
16 15 16 14 11 9 8 8 8 7 7 7 7 7 7 8 10 10 11 13 12 13 14 16 14 12 12 10 10 12 9 8 8 8 9 9 10 10 10 8 7 7 7 7 8 8 7 8 8 9 9 8 6 3 3 4 7 7 8 7 7 4 7 15 11 7 11 9 9 9 8 6 4 4 4 4 6 7 7 7 7 7 7 7 7
16 15 16 15 11 9 8 6 7 6 5 5 5 6 7 8 10 9 9 10 10 11 13 13 9 10 11 10 10 11 9 9 9 9 9 10 11 11 10 8 7 6 7 8 9 8 7 8 8 8 9 7 6 6 8 9 8 8 8 5 5 5 7 12 9 9 10 9 10 8 6 5 3 3 4 4 5 6 8 7 7 7 7 7 6
16 16 16 16 13 8 6 6 5 6 6 6 5 5 6 7 9 9 8 9 10 10 11 9 6 7 10 9 9 10 10 9 9 9 10 12 12 11 10 8 7 7 7 7 9 8 7 8 9 8 5 3 4 7 11 12 8 7 7 5 5 6 6 8 9 11 10 9 9 7 6 4 4 4 3 4 5 6 7 7 7 7 7 7 7
16 17 16 16 14 9 9 10 7 5 6 6 5 4 5 6 7 8 9 9 9 10 9 8 8 8 9 10 9 9 10 9 9 9 10 11 11 11 11 10 10 10 9 9 10 11 10 9 7 6 5 4 7 10 11 12 12 11 10 8 7 7 7 8 10 10 9 9 8 6 5 4 4 4 3 4 5 6 7 7 7 7 7 7 7
17 18 15 15 15 12 13 12 9 7 7 5 4 4 3 4 5 7 9 9 8 9 8 9 10 8 8 9 8 9 10 9 9 9 10 10 9 11 12 12 12 12 11 12 13 12 12 9 5 6 6 6 9 11 10 11 13 13 12 9 8 9 8 10 11 10 9 8 7 7 6 4 4 4 4 4 4 5 6 6 6 6 7 6 7
17 17 14 14 15 14 14 12 10 10 9 6 4 3 3 3 2 4 7 7 7 7 8 8 9 7 6 8 9 9 10 10 9 9 11 11 11 11 12 12 12 11 10 11 12 12 11 8 6 6 8 7 9 10 11 12 11 10 11 9 8 9 9 10 9 9 9 8 6 6 6 5 4 3 3 4 4 4 5 5 5 6 6 6 6
17 16 13 14 15 14 13 13 13 13 10 8 6 3 2 0 1 3 5 5 5 6 7 7 7 7 7 8 9 9 10 9 9 10 11 12 13 12 12 12 11 10 9 9 9 10 10 8 6 7 8 9 8 9 10 13 11 8 10 10 8 9 9 9 7 8 9 9 7 4 5 6 5 4 4 4 4 4 4 4 4 4 5 5 6
18 17 15 15 15 15 16 15 15 15 11 8 7 5 5 2 1 3 4 5 3 4 5 5 6 8 8 7 7 8 9 10 10 10 11 12 13 13 13 12 11 11 9 8 7 8 9 7 6 7 8 10 11 12 9 10 13 9 8 9 8 9 8 7 7 7 9 12 10 6 5 5 5 6 5 5 5 5 5 5 5 4 4 5 5
19 17 18 16 15 18 18 14 13 14 12 9 8 7 8 6 5 3 3 3 3 4 4 3 4 5 5 5 5 6 8 11 11 10 11 12 13 13 13 11 10 11 11 10 8 9 9 6 5 5 8 11 11 14 11 9 13 11 8 7 8 9 8 8 10 8 9 12 10 8 7 6 6 6 6 6 6 6 6 6 6 5 5 5 5
19 19 20 17 17 20 16 11 13 14 11 11 10 8 8 6 4 3 2 2 2 3 3 2 3 3 5 4 4 6 7 10 11 10 12 12 12 12 11 10 10 10 12 12 12 12 9 7 7 6 7 11 8 9 12 11 12 11 11 11 9 9 10 9 10 9 11 11 9 9 8 8 8 7 7 7 7 8 7 7 6 6 6 5 5
19 21 21 18 18 18 15 13 14 12 10 11 10 9 10 9 5 2 2 4 5 3 3 2 2 1 4 5 6 6 7 9 10 9 10 11 11 11 9 10 10 9 10 10 13 15 12 10 10 9 8 9 7 8 9 9 10 9 9 12 10 8 11 11 9 10 11 12 11 9 9 10 9 8 8 9 9 9 9 8 6 6 6 6 5
20 22 22 19 18 18 16 16 15 12 11 10 8 7 10 10 7 1 4 7 5 3 5 4 2 2 2 3 5 6 6 8 9 8 8 8 10 9 8 10 9 6 6 8 13 15 14 12 10 11 10 7 6 8 7 6 7 8 9 14 14 11 13 14 12 12 11 12 13 11 10 11 10 9 10 10 10 9 9 9 7 7 6 6 6
19 21 22 19 19 19 17 17 15 13 12 9 8 7 8 6 3 4 6 8 7 2 4 6 4 1 2 2 2 2 4 6 7 7 6 7 8 8 8 8 6 6 7 9 13 15 13 13 11 13 14 10 9 9 8 9 8 10 11 14 15 14 14 15 15 14 12 10 12 12 12 12 12 11 12 12 11 10 10 9 8 8 7 7 6
18 19 21 20 21 21 19 17 16 14 12 10 9 7 7 6 4 5 7 5 6 7 5 5 5 3 1 2 1 2 3 3 3 3 3 5 6 7 7 5 3 6 9 9 13 17 16 14 14 15 14 13 14 11 9 10 10 10 10 10 10 10 11 13 14 15 14 10 9 11 11 12 12 12 12 12 12 12 11 10 10 10 9 8 7
17 19 20 20 21 21 19 18 16 14 12 10 8 7 7 7 7 9 9 6 4 6 5 2 2 1 1 1 0 1 2 2 3 3 1 2 3 4 3 2 1 4 7 9 11 16 18 14 13 14 14 13 13 11 10 8 8 9 9 7 7 6 6 7 8 11 13 11 10 10 11 12 12 13 13 12 13 14 13 12 12 12 11 10 9
17 19 19 19 20 20 19 17 15 13 11 9 8 9 8 7 9 9 8 6 3 5 6 4 3 3 4 3 3 1 1 1 3 4 3 3 5 5 3 1 1 1 3 7 9 13 16 15 13 13 13 12 11 11 10 7 7 10 9 7 8 7 5 5 4 7 11 13 13 12 13 12 10 11 14 13 12 14 15 14 14 14 12 12 11
17 19 20 19 19 20 18 16 16 13 10 9 9 9 6 6 7 5 5 5 3 3 6 4 4 5 6 4 2 2 2 2 2 1 2 4 6 7 4 1 1 1 2 5 7 9 12 13 13 13 12 12 12 11 10 9 9 10 9 8 9 9 8 8 6 5 7 10 12 13 14 15 12 11 13 14 13 13 15 15 15 14 13 12 11
18 20 21 19 19 19 18 16 15 12 10 11 12 10 7 5 7 5 5 5 5 6 5 2 1 2 4 3 1 1 3 3 1 1 3 4 3 4 5 3 1 0 1 3 4 6 8 11 11 11 11 11 12 11 10 10 10 10 10 9 8 9 10 10 9 8 8 8 9 10 13 16 16 14 14 15 16 16 15 14 14 13 12 12 11
20 21 21 20 19 19 19 17 14 13 12 12 13 13 11 9 9 8 7 7 8 7 2 3 5 4 3 3 3 5 6 7 7 6 3 4 6 4 5 3 2 1 2 1 1 3 5 8 10 9 10 11 12 10 10 11 10 11 11 9 8 8 7 8 10 11 12 11 9 9 9 12 14 15 15 15 16 17 17 15 15 14 13 13 13
22 22 22 21 20 19 19 18 15 14 13 12 12 11 12 11 11 12 10 6 7 6 1 4 6 6 6 6 6 7 6 6 8 7 5 4 7 6 4 3 1 2 3 5 5 2 1 3 6 7 8 9 10 10 11 11 11 11 9 7 8 7 4 4 6 7 8 10 10 10 10 10 10 12 14 15 15 16 16 16 15 15 15 15 14
25 24 24 23 22 20 19 19 17 16 14 13 11 9 10 9 8 11 9 6 7 6 5 6 7 6 6 7 7 6 5 6 7 5 5 6 6 9 7 5 4 5 6 7 8 8 7 4 1 4 5 6 8 8 10 11 9 10 9 8 7 6 5 6 5 4 4 6 9 10 9 9 9 10 12 14 14 15 15 15 15 14 15 16 17
27 25 24 23 22 21 20 19 17 16 15 13 11 10 10 8 7 10 10 9 10 9 6 7 7 4 4 6 7 6 7 6 5 4 6 7 6 9 9 4 2 3 5 5 7 10 10 7 5 3 2 3 6 7 7 8 7 9 11 9 7 5 5 5 4 4 5 6 7 7 7 8 8 7 7 9 11 13 14 15 14 14 14 13 15
27 26 26 24 23 23 21 20 19 17 16 14 12 11 11 10 10 11 11 11 11 9 7 6 6 4 4 6 7 8 9 8 9 8 7 7 6 8 10 7 5 4 4 4 6 8 8 7 9 9 6 4 4 5 5 5 6 8 10 10 8 6 5 4 4 4 5 5 6 6 7 8 8 8 6 7 8 9 10 11 11 11 9 9 11
27 27 28 26 25 24 23 21 19 18 17 15 14 13 11 11 12 13 12 11 11 10 8 6 5 4 6 7 7 7 8 8 9 9 7 7 7 8 10 9 8 7 3 2 5 5 3 4 6 7 7 8 6 4 3 4 6 6 6 7 7 4 3 4 5 5 6 7 8 8 8 9 10 10 9 9 10 10 10 10 10 10 9 9 9
29 27 29 28 26 26 24 22 20 19 17 16 15 14 12 12 14 15 13 11 11 9 8 6 4 4 5 7 5 3 6 6 7 8 7 8 8 8 9 10 10 8 3 1 3 4 2 3 5 5 5 6 7 8 8 5 4 3 2 2 2 0 2 4 5 5 5 7 9 8 7 7 8 7 8 11 13 14 12 11 11 11 11 10 10
30 27 26 28 28 27 26 24 22 20 18 16 16 15 14 14 15 17 15 13 11 10 9 7 5 5 4 5 4 3 5 5 7 8 8 8 9 8 8 9 9 8 6 7 8 8 8 8 7 7 7 6 7 10 8 4 4 6 6 4 2 1 1 1 1 1 2 3 5 6 6 7 9 8 9 11 12 13 13 13 12 13 14 13 12
29 26 25 28 30 29 27 25 23 22 19 18 17 16 15 15 16 18 16 14 12 12 10 8 7 6 4 4 4 3 3 4 5 6 7 9 9 9 9 8 8 8 8 9 9 10 11 11 11 10 9 9 9 9 7 4 5 7 8 7 5 5 5 3 2 3 2 1 3 3 3 5 8 9 9 10 11 11 10 11 12 13 14 12 11
Wind_Direction
162 160 150 147 150 145 137 129 126 123 119 117 114 116 121 130 138 146 149 149 149 152 149 144 142 134 129 118 108 111 123 129 126 123 121 120 120 122 122 119 113 111 107 101 95 92 95 94 91 92 86 83 94 97 104 122 133 138 140 137 132 130 125 121 122 120 112 107 102 96 91 87 84 80 78 74 70 68 67 64 58 62 63 62 62
155 154 149 146 148 141 135 130 127 123 121 118 116 117 121 129 138 145 149 152 154 156 153 151 149 138 133 120 105 109 122 131 132 126 122 124 124 125 125 120 116 111 105 97 88 81 87 92 84 86 84 78 88 97 107 124 135 141 142 137 134 132 126 121 119 112 103 98 93 91 87 83 82 80 80 76 73 70 68 69 64 62 63 63 62
154 149 147 144 146 139 134 131 127 125 123 120 119 119 121 129 138 145 151 154 158 161 161 160 157 146 134 119 105 109 123 134 137 132 128 127 123 123 124 121 115 110 105 98 86 76 78 87 81 78 80 77 85 98 107 119 133 143 145 141 138 133 125 119 114 108 101 95 92 89 78 69 74 75 75 76 77 75 73 71 66 64 65 64 64
153 147 145 143 143 138 135 131 128 128 124 122 121 119 122 128 136 145 152 156 163 166 169 169 164 159 144 124 110 112 127 136 136 136 134 128 125 121 124 122 115 112 108 101 89 80 72 75 79 77 79 82 89 101 102 114 129 138 147 145 135 126 120 115 108 100 92 88 94 88 63 47 62 75 77 79 81 80 79 73 67 65 65 64 64
149 145 144 142 140 137 135 132 130 128 125 125 122 121 122 125 133 140 149 154 162 165 169 170 169 174 178 146 119 122 132 138 137 139 138 133 134 128 133 133 131 135 126 119 100 85 68 57 70 82 83 87 92 105 110 118 127 134 146 141 127 120 116 110 101 93 82 72 70 60 32 20 39 71 85 86 89 87 80 74 69 67 66 64 65
146 144 144 142 139 138 137 134 132 129 128 127 124 123 122 124 129 132 140 145 152 156 158 161 168 182 201 190 131 130 132 139 142 144 145 141 142 139 143 145 151 156 148 134 110 96 72 54 62 78 82 89 95 102 119 127 130 135 141 134 123 119 115 106 97 88 79 73 62 45 358 338 349 19 84 94 92 85 77 74 69 68 67 65 65
144 144 145 142 138 139 139 136 134 132 131 131 128 125 125 126 126 127 131 135 141 145 146 152 162 176 189 171 139 131 132 137 143 147 150 150 147 145 146 149 158 160 159 140 122 144 79 64 65 75 83 91 101 106 113 127 142 143 140 132 126 123 115 105 97 87 81 77 69 67 310 308 324 337 47 85 80 75 72 70 66 66 67 67 66
142 145 146 144 140 141 142 139 136 135 135 134 132 128 127 126 126 126 127 132 135 138 140 144 150 159 159 145 137 131 129 132 137 144 151 159 156 154 158 159 163 167 172 167 171 222 222 74 74 83 89 89 106 122 114 125 154 151 143 134 132 125 114 106 97 89 85 78 79 105 279 300 305 307 354 80 71 70 71 69 67 68 67 67 67
143 148 148 146 142 144 144 142 139 138 139 137 135 131 128 127 127 128 129 132 132 133 134 137 141 143 142 136 132 127 124 126 131 142 152 160 162 165 171 170 168 177 190 200 228 251 272 76 104 125 140 116 112 136 130 136 159 157 148 140 137 125 114 107 97 93 86 79 95 155 263 285 281 293 12 73 65 68 71 70 68 69 69 69 68
143 150 150 148 144 147 147 145 143 142 142 140 138 133 129 128 129 130 132 131 130 131 131 132 134 135 134 131 129 126 124 126 129 136 140 144 149 158 159 153 154 169 184 213 245 253 104 120 169 171 190 167 112 149 146 152 163 165 152 144 141 129 119 110 99 94 88 89 146 208 249 264 273 323 6 56 68 71 72 70 68 70 72 72 70
142 151 151 151 149 150 150 148 146 145 146 143 140 135 131 131 133 133 133 132 130 129 128 129 129 129 128 127 127 127 128 129 130 128 127 127 136 146 140 135 132 137 146 167 158 113 121 212 231 211 246 261 343 165 169 173 168 172 156 147 145 137 125 114 104 94 93 115 189 220 242 252 266 314 357 58 72 76 77 75 73 74 74 74 72
142 151 153 155 152 152 152 150 148 147 148 146 143 138 135 135 136 136 135 134 133 131 130 129 128 127 125 125 126 130 133 132 133 130 132 134 139 147 138 127 120 118 115 91 89 99 126 203 273 237 274 277 256 192 204 197 182 177 158 148 146 141 126 112 103 94 98 161 197 227 244 246 256 296 7 72 74 79 81 79 76 76 75 74 74
146 149 153 157 153 154 154 152 150 149 150 149 145 142 140 139 138 139 139 137 137 137 134 133 132 130 130 130 131 137 143 143 144 146 151 153 151 152 146 130 103 93 82 62 70 77 94 117 127 314 305 275 205 149 201 219 197 178 157 151 146 141 125 112 104 97 101 124 178 234 252 264 278 303 49 83 79 82 78 76 77 77 77 76 76
148 146 152 158 156 155 155 153 150 151 154 152 150 148 146 144 143 143 143 141 141 140 139 139 137 136 138 139 142 147 153 159 162 167 174 174 172 173 172 160 117 73 61 64 66 80 95 104 105 356 328 296 171 136 146 199 201 173 154 156 149 141 127 116 107 100 110 125 180 240 253 271 292 333 69 85 85 82 78 79 79 80 80 79 79
145 146 152 157 157 156 155 153 151 154 158 157 157 155 153 149 149 149 147 146 144 143 142 141 142 141 143 146 152 159 165 174 183 190 196 198 199 197 193 188 162 87 56 50 56 96 111 98 73 20 5 20 139 122 117 124 161 163 154 163 157 145 131 123 111 109 142 148 197 246 258 277 317 38 71 83 91 83 82 81 82 85 82 82 82
140 141 147 156 157 157 155 153 156 160 163 165 165 161 158 156 156 155 152 152 149 148 146 146 150 149 150 155 162 172 177 186 196 205 206 205 213 213 209 193 176 132 72 30 49 102 117 102 75 46 38 63 131 123 116 114 124 138 147 164 161 149 134 129 114 114 151 146 220 253 261 279 319 49 86 87 94 87 85 82 86 89 85 87 86
134 134 141 152 155 156 156 158 163 166 169 171 171 169 166 165 162 161 160 160 157 155 155 155 160 160 161 164 170 178 184 195 198 202 208 210 209 207 210 193 185 175 179 299 68 137 123 118 110 63 38 56 134 134 123 109 118 128 138 153 156 149 131 124 110 106 127 139 235 254 261 273 297 58 104 97 104 94 88 85 88 91 90 91 90
130 134 139 146 151 154 157 163 170 172 175 177 178 178 175 175 170 168 169 169 167 165 165 167 171 170 169 171 175 179 185 196 194 196 206 211 205 200 202 195 196 199 215 241 222 172 154 151 140 87 45 63 123 141 133 119 117 122 134 142 149 149 133 128 121 113 146 172 226 255 265 280 305 281 122 112 118 108 96 91 91 93 94 93 92
135 141 145 148 149 150 157 166 175 176 179 182 184 185 184 186 184 181 180 179 178 176 176 177 181 178 175 178 180 179 182 193 195 197 201 209 206 198 202 199 205 215 227 233 220 201 184 191 173 132 58 72 105 127 152 151 128 122 134 140 147 150 137 131 122 120 195 193 214 255 265 280 303 288 159 134 136 128 114 101 99 98 98 96 93
138 144 151 152 148 150 159 165 174 176 180 185 188 192 195 196 197 197 194 192 191 187 188 189 189 185 182 185 184 181 185 195 206 214 209 212 209 202 208 208 214 224 233 232 217 215 212 207 208 199 153 98 103 108 169 185 160 137 133 141 148 145 135 124 117 142 218 213 228 253 262 276 284 269 206 159 155 148 136 118 113 107 104 101 98
141 148 154 151 149 154 157 161 169 173 179 185 190 199 202 204 207 209 208 204 204 200 198 197 194 189 188 191 192 191 194 202 217 239 229 220 217 208 209 215 220 223 231 232 217 222 231 220 219 220 204 180 158 147 166 196 190 159 142 147 148 148 145 131 121 150 244 256 260 257 261 275 269 255 229 176 169 165 155 137 127 120 118 112 106
147 155 156 153 154 154 151 156 163 165 175 181 187 197 200 207 210 214 218 216 215 213 206 205 204 200 198 200 202 201 201 210 223 244 245 231 223 211 210 219 221 220 228 230 220 221 234 238 237 230 217 214 206 192 189 198 203 184 162 154 155 161 161 145 134 156 249 261 278 272 274 276 257 250 232 187 175 174 167 151 139 134 132 126 118
154 157 148 149 151 150 147 151 160 160 170 181 187 193 196 204 208 212 218 222 223 220 216 214 212 210 212 214 212 208 208 223 229 235 241 230 219 214 217 223 222 222 227 227 223 223 236 250 254 248 231 220 222 218 201 191 205 208 182 160 166 173 165 146 143 174 234 248 266 275 291 281 252 250 231 191 180 179 173 164 154 149 147 140 130
150 146 139 145 146 145 143 148 164 163 170 181 190 194 192 197 200 207 216 222 225 222 223 222 218 216 218 222 218 214 217 226 222 216 224 225 217 219 224 228 228 227 232 231 228 230 238 249 254 253 242 225 217 210 176 194 225 210 190 177 168 166 161 143 136 190 229 237 252 267 279 270 261 258 229 193 185 187 183 177 173 167 162 153 144
142 139 141 152 149 134 127 141 160 162 175 182 192 199 191 191 193 207 220 223 227 226 229 228 222 218 214 216 221 223 224 218 212 211 220 223 219 224 226 226 227 228 234 236 239 244 249 251 252 248 248 240 205 163 173 232 257 212 184 188 167 168 176 149 139 209 226 234 248 265 265 255 270 258 231 209 193 192 191 187 187 182 175 167 158
144 142 144 153 151 133 123 142 155 152 172 185 203 208 192 196 206 217 224 225 231 228 231 231 222 222 219 220 228 229 229 220 218 222 219 213 212 221 221 216 220 225 231 240 246 253 257 251 249 244 249 245 184 168 200 209 246 227 192 200 181 193 186 151 162 213 213 228 247 260 256 244 254 245 233 219 202 200 199 195 196 193 188 181 173
147 144 144 149 150 141 131 153 164 152 161 173 196 212 200 212 226 228 224 230 240 234 236 238 230 237 231 226 230 231 232 226 222 222 214 206 205 211 214 207 207 215 221 235 241 247 260 249 238 233 230 239 198 209 211 194 205 214 193 209 213 209 188 159 186 214 214 223 239 244 240 237 235 232 231 222 206 201 203 202 201 199 198 194 191
148 145 147 148 146 142 140 154 160 150 167 175 181 200 213 223 225 219 215 223 234 237 240 233 221 227 223 218 225 228 228 223 224 225 215 208 201 199 202 201 202 211 213 211 219 233 251 248 241 241 215 210 231 232 218 200 201 196 187 201 209 203 199 192 193 210 227 225 224 222 223 231 231 230 225 229 218 201 201 202 201 198 200 199 198
149 148 148 148 147 144 145 151 150 153 173 176 175 186 198 215 222 220 215 210 214 221 223 218 218 219 214 217 222 221 221 225 233 232 219 211 206 199 196 198 204 212 214 205 210 227 241 234 227 254 236 206 223 228 219 222 222 201 188 197 204 192 199 214 198 203 229 225 218 215 219 221 225 241 228 229 230 214 205 198 196 193 192 193 194
150 146 145 148 146 145 145 145 145 155 163 150 166 205 182 183 219 230 224 215 213 214 212 214 222 224 217 222 228 226 225 226 225 224 225 220 216 211 201 204 212 218 220 207 208 225 236 224 201 232 239 222 224 224 217 223 235 219 192 190 212 197 198 220 201 200 230 234 226 212 219 227 225 245 243 241 238 234 229 209 199 192 187 183 185
149 142 141 145 142 140 138 142 146 145 148 147 157 184 172 153 315 253 228 209 209 209 208 209 214 223 224 227 230 229 227 223 216 216 227 227 223 223 215 218 226 227 225 212 214 225 233 223 198 218 227 226 229 230 232 222 223 239 208 187 213 213 206 227 209 197 225 244 259 246 230 237 239 251 257 261 255 249 249 230 216 207 198 189 186
146 142 146 145 140 139 140 152 159 142 135 145 149 145 130 101 344 271 230 192 220 233 214 202 192 202 208 217 227 225 222 220 220 218 225 229 227 231 226 225 231 234 229 219 224 225 229 223 200 213 216 223 226 217 232 228 213 231 228 188 203 222 212 225 215 189 215 244 267 278 266 261 254 259 264 268 267 256 254 250 240 229 221 212 203
144 147 149 141 136 148 155 164 163 144 133 126 122 128 128 139 177 242 252 193 232 235 226 241 218 213 205 208 230 233 228 223 223 220 225 230 230 233 231 230 233 236 235 224 221 217 224 223 194 209 221 230 236 213 207 220 212 212 228 205 198 220 217 220 223 199 208 239 268 277 272 284 278 270 273 276 276 262 251 250 249 243 238 235 226
148 151 148 141 144 158 167 159 147 145 139 125 124 139 132 128 173 236 307 56 75 166 179 229 233 266 253 234 241 241 238 230 226 220 221 227 234 241 239 238 235 230 232 225 220 220 220 217 200 198 226 237 246 228 213 209 203 200 222 226 206 214 217 224 235 216 203 220 255 271 269 279 278 276 279 278 277 269 260 250 249 250 248 249 245
152 151 148 147 155 165 164 144 140 146 143 139 145 158 139 123 149 212 2 64 58 55 66 96 143 229 251 241 243 241 237 229 228 222 219 227 237 247 247 240 234 231 241 236 226 222 216 217 211 196 223 239 223 230 230 206 194 197 226 233 215 202 207 218 231 226 220 213 220 247 265 271 271 273 279 282 280 270 263 258 256 256 259 262 260
154 153 151 151 157 162 155 141 143 145 140 144 143 145 145 147 167 167 56 89 87 3 1 35 98 143 162 195 222 230 236 233 234 229 225 237 239 244 248 236 220 209 233 240 225 217 213 222 218 194 202 223 219 227 227 199 197 205 225 231 221 207 202 206 211 216 225 222 219 225 241 257 266 273 276 278 276 267 263 262 263 266 269 273 271
158 157 155 154 157 155 151 145 145 142 137 140 131 126 135 138 141 99 89 104 109 73 9 28 37 60 158 170 185 215 238 243 250 248 241 250 245 239 245 247 230 205 217 226 214 205 210 222 213 195 194 194 206 216 197 190 209 214 220 226 223 219 210 208 212 211 207 217 230 229 233 247 255 266 275 273 268 263 262 260 261 267 270 274 279
161 161 157 156 157 153 152 149 145 142 138 137 130 126 125 115 94 91 102 114 122 132 117 75 70 81 170 194 189 226 250 256 271 275 243 242 243 237 243 265 266 230 228 222 207 202 207 217 209 201 203 197 202 211 201 201 217 226 232 235 229 225 221 220 220 217 211 212 226 229 240 251 246 249 262 269 271 271 268 265 264 266 267 271 275
164 163 157 157 161 159 156 151 147 146 138 134 127 112 105 99 80 76 83 82 90 119 125 132 140 101 340 289 255 276 280 283 311 339 323 257 266 270 272 301 269 226 228 222 209 207 211 218 215 208 211 211 210 216 221 220 223 230 237 246 247 231 221 227 224 221 219 215 219 225 235 247 249 246 246 254 262 267 270 271 273 272 268 270 273
171 168 158 161 170 165 160 155 152 149 140 134 112 91 82 76 78 85 99 105 89 99 101 101 120 90 56 42 57 26 284 53 34 13 10 342 328 327 342 14 277 250 233 227 218 214 216 223 226 220 217 223 227 224 228 237 230 226 231 251 265 254 239 236 224 227 227 218 218 222 220 223 237 242 241 245 247 255 267 270 272 275 274 274 272
179 175 163 166 176 170 164 161 157 155 150 136 107 97 100 92 100 114 114 97 52 95 119 133 157 147 139 138 135 199 247 150 141 163 80 31 360 346 341 337 269 250 222 232 226 220 223 227 232 231 226 228 234 232 231 232 224 224 229 241 257 259 258 249 229 230 237 229 229 231 222 215 218 225 230 234 233 240 259 266 268 272 278 282 273
186 181 170 170 178 174 170 166 162 161 156 140 127 130 140 121 113 119 114 101 95 108 109 101 101 148 170 196 233 77 32 31 32 185 126 91 66 12 331 288 204 77 258 259 244 227 228 231 235 237 234 235 237 233 228 229 231 234 231 229 246 261 262 255 245 243 246 244 248 248 235 225 226 229 228 231 230 229 238 250 256 262 269 279 281
192 186 176 173 175 176 175 169 164 163 157 150 148 151 157 149 133 136 147 148 146 146 125 76 80 62 72 48 46 87 68 47 39 33 63 103 111 79 347 296 207 87 41 5 273 226 228 229 232 234 231 234 239 238 231 232 238 240 236 234 247 260 261 257 253 252 255 257 259 261 253 243 241 243 242 241 236 233 236 239 246 251 250 257 273
197 191 180 177 174 176 179 172 167 166 161 161 162 161 162 162 159 161 167 168 165 176 180 89 86 63 65 66 74 98 98 97 84 56 49 85 117 109 36 344 34 72 55 40 32 33 319 248 237 233 225 222 231 238 233 232 236 235 229 224 235 246 239 233 237 241 257 262 256 254 257 263 265 262 261 257 248 245 246 244 248 253 246 235 242
201 196 185 181 175 177 181 174 172 170 168 170 164 158 162 166 173 173 169 148 131 131 106 83 79 68 67 70 73 83 83 102 110 93 77 78 102 108 78 21 38 64 52 37 30 33 30 16 303 225 217 207 213 222 221 221 227 226 216 209 221 226 211 213 226 236 254 258 250 250 257 266 274 271 266 262 259 260 259 254 254 264 266 244 231
206 202 190 185 178 179 183 177 175 175 175 175 163 157 161 162 167 163 153 131 114 116 111 94 100 99 71 68 69 72 70 76 88 94 101 96 94 106 102 62 34 97 88 71 57 49 43 40 50 66 108 170 195 200 204 207 210 211 207 206 210 206 204 212 228 250 260 257 247 254 267 271 278 281 268 259 264 266 261 258 260 273 283 265 246
211 207 196 189 182 181 185 181 179 180 180 177 167 164 162 155 152 143 135 126 125 142 151 133 139 139 89 73 61 60 62 58 62 67 83 102 117 132 124 96 58 84 103 114 109 85 71 68 60 51 56 84 153 176 178 181 188 200 204 210 218 217 214 224 235 246 261 264 251 258 272 273 276 279 272 265 271 269 258 255 262 275 282 274 267
215 213 202 193 186 184 187 184 182 184 184 178 170 169 166 154 145 137 135 141 151 164 165 154 153 127 88 76 62 58 63 56 60 69 68 77 101 126 127 111 86 84 98 187 166 149 138 111 88 68 66 77 90 103 105 130 159 180 194 203 214 222 225 244 262 266 274 281 279 275 275 274 275 276 272 269 268 270 268 261 259 267 273 276 280
211 213 206 197 189 187 188 186 185 188 186 181 176 173 170 155 144 142 148 165 174 171 167 166 153 126 104 102 100 68 69 65 59 71 70 66 82 105 122 125 113 104 107 135 139 147 138 125 128 121 111 107 99 89 80 85 131 131 117 148 157 231 270 268 282 295 298 297 302 306 302 297 296 295 289 282 274 269 268 265 261 264 271 274 274
206 211 209 201 193 189 189 187 188 192 188 184 180 177 173 159 148 147 158 183 183 166 170 173 159 148 129 124 128 74 64 67 59 63 64 63 72 85 103 120 119 107 86 75 80 88 89 91 102 111 119 131 128 120 115 116 140 127 108 106 117 148 221 291 303 323 344 325 316 325 333 330 326 322 314 303 292 282 272 269 270 271 274 273 274
205 210 210 204 197 192 191 187 189 194 190 186 184 182 176 164 153 152 168 191 180 166 180 181 169 170 150 127 123 98 71 59 61 66 62 64 68 74 85 98 106 101 93 86 79 81 86 88 90 92 97 107 117 133 145 132 122 140 149 150 156 163 158 145 162 181 174 240 280 281 292 319 320 316 322 322 313 309 301 287 279 275 276 277 289